Regional Weather Roundup
Issued by NWS Pendleton, OR

Home | Current Version | Previous Version | Text Only | Print | Product List | Glossary On
Versions: 1 2 3 4 5 6 7 8 9 10 11 12 13 14 15 16 17 18 19 20 21 22 23 24 25 26 27 28 29 30 31 32 33 34 35 36 37 38 39 40 41 42 43 44 45 46 47 48 49 50
508
ASUS46 KPDT 010525
RWRPDT
PENDLETON REGIONAL WEATHER ROUNDUP
NATIONAL WEATHER SERVICE PENDLETON OREGON
1000 PM PDT TUE MAY 31 2016

NOTE: FAIR INDICATES FEW OR NO CLOUDS BELOW 12,000 FEET WITH NO
SIGNIFICANT WEATHER AND/OR OBSTRUCTIONS TO VISIBILITY.

# INDICATES UNOFFICIAL STATION AND DATA

WAZ520-010610-
EAST SLOPES OF WASHINGTON CASCADES

CITY            SKY/WX      TMP DP  RH  WIND    PRES   REMARKS
#CLE ELUM 2NW   N/A         59  42  53  CALM    N/A
#MANASTASH CYN  N/A         59  41  51  CALM    30.00S
#NELSON 3SW     N/A         57  45  64  CALM    30.12R
#NILE           N/A         61  46  58  CALM    29.23R
#RONALD 2NW     N/A         62  N/A N/A N1      29.88S
#TROUT LAKE 1NE N/A         59  45  60  CALM    29.93R
#TROUT LAKE 1E  N/A         57  48  72  CALM    29.96R
$$

WAZ521-010610-
SIMCOE HIGHLANDS

CITY            SKY/WX      TMP DP  RH  WIND    PRES   REMARKS
#CENTERVILLE 1SWN/A         60  38  44  CALM    29.88S
#GOLDENDALE 1NE N/A         62  26  25  N3      N/A
#GOLDENDALE 4W  N/A         62  47  58  CALM    30.01S
#GOODNOE HILLS  N/A         70  34  26  NE3     29.87S
#LYLE 6NE       N/A         71  36  28  N1      29.88S
$$

WAZ026-010610-
KITTITAS VALLEY

CITY            SKY/WX      TMP DP  RH  WIND    PRES   REMARKS
ELLENSBURG AP   CLOUDY      65  42  43  E7      29.98R
#ELLENSBURG 3NE N/A         62  45  54  CALM    29.98S
#ELLENSBURG     N/A         68  46  45  NE1     N/A
#ELLENSBURG 1E  N/A         64  N/A N/A CALM    N/A
#ELLENSBURG 13S N/A         69  46  44  CALM    N/A
#KITTITAS 4N    N/A         63  39  41  NE2     30.03R
#KITTITAS 3S    N/A         58  50  75  CALM    29.91S
#THORP 6N       N/A         66  38  36  E5      29.95S
$$

WAZ027-010610-
YAKIMA VALLEY

CITY            SKY/WX      TMP DP  RH  WIND    PRES   REMARKS
SUNNYSIDE AP    N/A         62  42  48  N3      29.94S
YAKIMA AIRPORT  MOCLDY      67  43  42  W3      29.96S
YAKIMA-VAGABOND MOCLDY      69  32  25  SE6     29.95S
#DONALD 2NE     N/A         71   7   8  S1      28.80R
#GRANDVIEW      N/A         67  38  34  CALM    29.93S
#MABTON         N/A         65  42  43  CALM    29.93S
#NACHES 2SW     N/A         64  51  63  CALM    29.99S
#TERRACE HTS    N/A         68  37  32  CALM    29.89S
#WEST VALLEY    N/A         67  47  49  CALM    29.91S
#W YAKIMA       N/A         70  41  35  CALM    29.92S
#WILEY CITY 3W  N/A         60  41  49  CALM    29.94S
$$

WAZ028-010610-
LOWER COLUMBIA BASIN...WASHINGTON

CITY            SKY/WX      TMP DP  RH  WIND    PRES   REMARKS
PASCO           PTCLDY      63  53  70  CALM    29.93S
PROSSER AWOS    N/A         64  45  50  N1      29.96S
RICHLAND AWOS   PTCLDY      66  44  45  CALM    29.93S
#BENTON CITY    N/A         65  41  41  W1      29.82S
#CONNELL 5N     N/A         65  41  41  NE1     29.93S
#ELTOPIA 6NW    N/A         67  44  43  CALM    28.92S
#KAHLOTUS       N/A         69  42  37  S5      29.92F
#KENNEWICK 3S   N/A         69  44  40  CALM    29.92S
#PATERSON       N/A         68  48  49  S1      29.89S
#SAGEMOOR 2W    N/A         67  46  47  N1      29.77S
#WEST PASCO     N/A         69  49  49  NE1     29.97F
$$

WAZ029-010610-
FOOTHILLS OF THE BLUES...WASHINGTON

CITY            SKY/WX      TMP DP  RH  WIND    PRES   REMARKS
WALLA WALLA AP  PTCLDY      59  47  64  E9      29.95S
#CLYDE 6NW      N/A         63  42  46  CALM    29.91F
#LOWDEN 2SE     N/A         62  50  65  CALM    29.89S
#PLEASANT VIEW 1N/A         67  39  36  NE1     29.96S
#PRESCOTT       N/A         58  47  67  CALM    29.90F
#SUDBURY        N/A         62  N/A N/A CALM    N/A
#WHITMAN COLLEGEN/A         66  48  52  E2      29.95F
#WAITSBURG 5S   N/A         62  45  54  NE2     30.01S
#WAITSBURG 8N   N/A         61  16  17  N3      29.79
#WALLA WALLA U  N/A         71  49  46  CALM    29.91S
#WHITMAN MISSIONN/A         64  51  63  CALM    29.92S
$$

WAZ030-010610-
BLUE MOUNTAINS...WASHINGTON

CITY            SKY/WX      TMP DP  RH  WIND    PRES   REMARKS
#DIXIE 5SE      N/A         66  38  36  N1      29.96S
$$

ORZ009-041-WAZ024-010610-
COLUMBIA RIVER GORGE

CITY            SKY/WX      TMP DP  RH  WIND    PRES   REMARKS
HOOD RIVER AP   PTCLDY      64  45  50  S3      29.93R
THE DALLES AP   PTCLDY      69  39  33  SW7     29.91R
#ARLINGTON AIRPON/A         73  37  27  CALM    29.92R
#CELILO DOT     N/A         72  40  31  E2      N/A
#MOSIER 1S      N/A         69  14  12  CALM    29.91S
#MURDOCK        N/A         70  41  35  CALM    29.87R
#SMITHVILLE     N/A         68  37  32  NE2     29.79R

$$

ORZ510-010610-
NORTH CENTRAL OREGON

CITY            SKY/WX      TMP DP  RH  WIND    PRES   REMARKS
#ANTELOPE       N/A         61  37  41  E5      29.78R
#CHENOWITH 1W   N/A         70  30  22  E5      N/A
#COW CYN RST AREN/A         67  N/A N/A N5      N/A
#DUFUR 9E       N/A         69  35  28  E13     29.96S
#GRASS VALLEY   N/A         55  42  61  S1      N/A
#GRASS VALLEY 1SN/A         61  39  44  CALM    29.94F
#KENT DOT       N/A         62  28  27  N7      N/A
#MAUPIN SCHOOL  N/A         73  44  35  CALM    29.98R
#MORO SCHOOL    N/A         55  46  72  CALM    29.99R
#SHANIKO 5WSW   N/A         63  28  26  NE16    N/A
#SHANIKO 4NW    N/A         63  -39  1  E9      30.04F
#TYGH VALLEY 2NEN/A         67  38  34  CALM    29.90S
#WAPANITIA AIRPON/A         62  39  43  CALM    29.93S
#WASCO DOT      N/A         60  37  42  E2      N/A
#WASCO AIRPORT  N/A         67  35  30  E3      N/A
#WASCO 5NE      N/A         52  41  66  CALM    29.92F
$$

ORZ511-010610-
CENTRAL OREGON

CITY            SKY/WX      TMP DP  RH  WIND    PRES   REMARKS
BEND AIRPORT    CLEAR       66  32  28  NW6     30.03R
MADRAS AIRPORT  PTCLDY      64  41  43  N7      30.01S
PRINEVILLE AP   CLEAR       61  36  39  CALM    30.02R
REDMOND AIRPORT CLEAR       68  32  26  NW9     30.01S
#ASHWOOD SCHOOL N/A         64  36  35  CALM    29.96S
#BEND 1SW       N/A         58  40  51  NE1     N/A
#BEND-AWBREY    N/A         63  36  36  E3      29.92R
#BEND-KIM LN    N/A         64  36  35  CALM    30.02R
#CULVER         N/A         64  37  37  CALM    29.88R
#CULVER 8W      N/A         64  33  31  CALM    30.01S
#LAKE BILLY CHINN/A         70  N/A N/A NW3     30.06R
#MADRAS 4S      N/A         63  14  15  CALM    30.06R
#POWELL BUTTE 3EN/A         65  37  35  W5      N/A
#POWELL BUTTE   N/A         62  38  41  SW2     29.90S
#PRINEVILLE 3N  N/A         63  40  43  SW3     29.90R

$$


ORZ509-010610-
EAST SLOPES OF OREGON CASCADES

CITY            SKY/WX      TMP DP  RH  WIND    PRES   REMARKS
SISTERS AWOS    N/A         61  37  41  CALM    30.02R
#BLUE BOX PASS  N/A         58  N/A N/A N5      N/A
#CAMP SHERMAN   N/A         56  38  51  CALM    30.00R
#LA PINE DOT    N/A         65  26  23  NW6     N/A
#LA PINE 4NW    N/A         57  39  51  CALM    29.96R
#LAVA BUTTE DOT N/A         57  29  34  CALM    N/A
#SISTERS AIRPOR N/A         59  45  60  N1      30.17S
#SISTERS ODOT   N/A         57  N/A N/A CALM    N/A
#SISTERS 1NW    N/A         64  36  35  N7      N/A
#SISTERS 3N     N/A         55  30  38  CALM    30.03R
#SUNRIVER       N/A         60  38  44  CALM    29.95R
#SUTTLE LK DOT  N/A         54  40  59  SW13    N/A
#WANOGA BUTTE D N/A         55  27  34  NE2     N/A

$$

ORZ044-010610-
LOWER COLUMBIA BASIN...OREGON

CITY            SKY/WX      TMP DP  RH  WIND    PRES   REMARKS
HERMISTON       PTCLDY      64  48  56  E5      29.92S
#ECHO 8SW       N/A         59  47  64  SE1     29.94S
#I-84 EX 198 DOTN/A         68  40  36  NE12    N/A
#UMATILLA SCHOOLN/A         68  54  61  CALM    29.98S
#UMATILLA       N/A         70  43  38  CALM    29.84S
$$

ORZ507-010610-
NORTHERN FOOTHILLS OF THE BLUES

CITY            SKY/WX      TMP DP  RH  WIND    PRES   REMARKS
PENDLETON AIRPT MOCLDY      63  40  43  E12     29.96S
#ADAMS 3WNW     N/A         56  44  64  CALM    29.92S
#ATHENA         N/A         56  44  64  CALM    29.95F
#CAYUSE         N/A         62  45  54  E7      29.91S
#HELIX SCHOOL   N/A         59  43  55  CALM    29.93S
#HELIX 3N       N/A         57  44  62  NE2     29.95F
#HOLDMAN 5SE    N/A         59  44  57  CALM    29.95S
#HOLDMAN 6E     N/A         63  40  43  SW3     29.73S
#M-F GROVE ELEM N/A         61  42  50  CALM    29.93S
#M-FREEWATER 5SEN/A         61  46  58  CALM    29.95S
#PENDLETON DNTN N/A         65  39  38  CALM    29.98S
#PDT AQUATIC CTRN/A         65  37  35  CALM    29.99S
#PENDLETON 7NW  N/A         64  44  48  CALM    31.98S
#PILOT ROCK 1S  N/A         59  40  49  CALM    29.98S
#PILOT ROCK     N/A         60  41  49  SW3     30.00S
#TUTUILLA       N/A         53  45  74  CALM    29.94S
#UMAPINE 2E     N/A         58  50  75  CALM    29.90F

$$

ORZ508-010610-
SOUTHERN FOOTHILLS OF THE BLUES

CITY            SKY/WX      TMP DP  RH  WIND    PRES   REMARKS
#AJAX           N/A         65  30  27  N2      27.74S
#CONDON SCHOOL  N/A         64  36  35  N6      29.97S
#CONDON 5W      N/A         64  30  28  NE7     30.00S
#FOSSIL SCHOOL  N/A         61  40  46  CALM    29.96S
#HEPPNER EOC    N/A         63  41  44  SE5     29.86S
#HEPPNER 4NE    N/A         59  40  49  E7      29.93S
#LEXINGTON 2SE  N/A         61  43  51  CALM    29.94S
#OLEX 4N        N/A         69  38  32  CALM    29.93S
#RUGGS 2SW      N/A         63  38  39  SW5     29.95S

$$

ORZ502-503-010610-
BLUE MOUNTAINS

CITY            SKY/WX      TMP DP  RH  WIND    PRES   REMARKS
MEACHAM         PTCLDY      51  41  68  CALM    30.07S
#BATTLE MTN DOT N/A         56  45  66  N7      N/A
#CUTSFORTH PARK N/A         51  39  63  CALM    29.85S
#GREENHORN 9SW  N/A         50  37  61  CALM    26.26R
#HARDMAN 10S    N/A         61  34  36  N5      30.22S
#LADD CREEK ODOTN/A         54  40  59  W2      N/A
#LONG CREEK HS  N/A         56  42  59  CALM    N/A
#N POWDER DOT   N/A         57  43  59  N1      N/A
#PIKES PEAK     N/A         67  37  33  CALM    27.99S
#TOLLGATE       N/A         54  40  59  CALM    29.96F
#UKIAH          N/A         50  44  80  CALM    29.91R
#WESTON 4E      N/A         61  42  50  E3      29.90F
$$

ORZ505-010610-
JOHN DAY BASIN

CITY            SKY/WX      TMP DP  RH  WIND    PRES   REMARKS
JOHN DAY        PTCLDY      65  33  30  E8      30.04S
#DAYVILLE SCHOOLN/A         70  34  26  CALM    29.96R
#MITCHELL 8NW   N/A         68  35  29  CALM    30.09F
#MONUMENT HS    N/A         68  41  37  CALM    29.90R
#MT. VERNON 5SE N/A         60  32  35  CALM    30.01R
#WINLOCK        N/A         N/A N/A N/A CALM    29.98S
$$

ORZ506-010610-
OCHOCO AND JOHN DAY HIGHLANDS

CITY            SKY/WX      TMP DP  RH  WIND    PRES   REMARKS
#BUCK CREEK DOT N/A         68  35  29  CALM    N/A
#HORSE RIDGE DO N/A         64  30  28  NW6     N/A
#KEYES SMT DOT  N/A         61  35  38  SE6     N/A
#PAULINA SCHOOL N/A         65  30  27  CALM    N/A
#PINE MTN OBS   N/A         56  31  38  NW9     N/A
#SENECA         N/A         57  N/A N/A CALM    N/A
#SENECA 9NW     N/A         51  33  50  CALM    29.95S
$$

ORZ049-010610-
GRANDE RONDE VALLEY

CITY            SKY/WX      TMP DP  RH  WIND    PRES   REMARKS
LA GRANDE       PTCLDY      59  34  39  SW7     30.02R
#COVE           N/A         59  41  51  CALM    30.05R
#COVE SCHOOL    N/A         62  37  39  CALM    30.04R
#ELGIN 3N       N/A         57  37  47  CALM    30.00R
#ELGIN 1E       N/A         62  42  48  CALM    N/A
#ISLAND CITY 4N N/A         69  50  51  CALM    29.93R
#LADD CYN DOT   N/A         61  39  44  SE17    N/A
#UNION 1S       N/A         56  41  57  CALM    29.86R
$$

ORZ050-010610-
WALLOWA COUNTY

CITY            SKY/WX      TMP DP  RH  WIND    PRES   REMARKS
JOSEPH AIRPORT  CLEAR       50  37  61  S5      N/A
#IMNAHA SCHOOL  N/A         58  46  64  S1      30.02R
#IMNAHA 10S     N/A         56  43  62  SW5     30.04R
#JOSEPH 3N      N/A         45  35  68  CALM    30.10S
#JOSEPH 3W      N/A         51  39  63  SW3     29.94S
#LOSTINE 3SE    N/A         53  39  59  S1      30.06R
#PROMISE 1S     N/A         52  41  66  CALM    30.09R



$$



USA.gov is the U.S. government's official web portal to all federal, state and local government web resources and services.